TimeEST,TemperatureF,Dew PointF,Humidity,Sea Level PressureIn,VisibilityMPH,Wind Direction,Wind SpeedMPH,Gust SpeedMPH,PrecipitationIn,Events,Conditions,WindDirDegrees,DateUTC
12:42 AM,37.4,35.6,93,29.81,2.5,North,9.2,-,N/A,,Overcast,360,2013-02-24 05:42:00
12:54 AM,37.9,36.0,93,29.82,2.5,North,8.1,-,N/A,,Overcast,360,2013-02-24 05:54:00
1:25 AM,37.4,35.6,93,29.81,4.0,North,6.9,-,N/A,,Overcast,360,2013-02-24 06:25:00
1:54 AM,37.9,36.0,93,29.81,2.5,North,6.9,-,N/A,,Overcast,350,2013-02-24 06:54:00
2:15 AM,37.4,37.4,100,29.82,1.8,NNW,4.6,-,N/A,,Overcast,340,2013-02-24 07:15:00
2:24 AM,37.4,35.6,93,29.82,2.5,NNW,5.8,-,N/A,,Overcast,330,2013-02-24 07:24:00
2:33 AM,37.4,35.6,93,29.82,3.0,NNW,4.6,-,N/A,,Overcast,330,2013-02-24 07:33:00
2:42 AM,37.4,35.6,93,29.82,2.0,NNW,5.8,-,N/A,,Overcast,340,2013-02-24 07:42:00
2:54 AM,37.0,36.0,96,29.82,2.5,NNW,4.6,-,N/A,,Overcast,340,2013-02-24 07:54:00
3:04 AM,37.4,35.6,93,29.80,4.0,North,6.9,-,N/A,,Overcast,360,2013-02-24 08:04:00
3:54 AM,37.0,36.0,96,29.78,10.0,North,6.9,-,N/A,,Overcast,350,2013-02-24 08:54:00
4:04 AM,37.4,35.6,93,29.77,10.0,North,5.8,-,N/A,,Overcast,10,2013-02-24 09:04:00
4:47 AM,37.4,35.6,93,29.78,10.0,Variable,4.6,-,N/A,,Overcast,0,2013-02-24 09:47:00
4:54 AM,37.0,36.0,96,29.79,10.0,NW,4.6,-,N/A,,Overcast,320,2013-02-24 09:54:00
5:12 AM,37.4,35.6,93,29.78,10.0,NW,3.5,-,N/A,,Overcast,310,2013-02-24 10:12:00
5:54 AM,37.9,36.0,93,29.79,10.0,NNW,4.6,-,N/A,,Overcast,340,2013-02-24 10:54:00
6:54 AM,37.0,35.1,93,29.79,10.0,NNW,5.8,-,N/A,,Overcast,330,2013-02-24 11:54:00
7:14 AM,37.4,35.6,93,29.80,10.0,NNW,3.5,-,N/A,,Overcast,330,2013-02-24 12:14:00
7:30 AM,37.4,35.6,93,29.80,10.0,NNW,3.5,-,N/A,,Scattered Clouds,330,2013-02-24 12:30:00
8:54 AM,39.9,36.0,86,29.82,10.0,WNW,5.8,-,N/A,,Partly Cloudy,290,2013-02-24 13:54:00
9:13 AM,41.0,37.4,87,29.81,10.0,Variable,3.5,-,N/A,,Mostly Cloudy,0,2013-02-24 14:13:00
9:54 AM,45.0,37.0,74,29.81,10.0,NW,8.1,16.1,N/A,,Mostly Cloudy,310,2013-02-24 14:54:00
10:10 AM,44.6,37.4,76,29.81,10.0,WNW,10.4,18.4,N/A,,Scattered Clouds,290,2013-02-24 15:10:00
10:54 AM,46.9,35.1,63,29.82,10.0,WNW,11.5,16.1,N/A,,Scattered Clouds,290,2013-02-24 15:54:00
11:54 AM,48.0,30.9,52,29.81,10.0,WNW,13.8,21.9,N/A,,Mostly Cloudy,290,2013-02-24 16:54:00
12:54 PM,48.0,30.0,50,29.80,10.0,WNW,11.5,20.7,N/A,,Mostly Cloudy,290,2013-02-24 17:54:00
1:54 PM,46.0,28.9,51,29.81,10.0,NW,15.0,20.7,N/A,,Overcast,310,2013-02-24 18:54:00
2:54 PM,45.0,27.0,49,29.82,10.0,WNW,9.2,26.5,N/A,,Overcast,300,2013-02-24 19:54:00
3:54 PM,43.0,25.0,49,29.85,10.0,WNW,10.4,27.6,N/A,,Mostly Cloudy,300,2013-02-24 20:54:00
4:54 PM,39.9,23.0,51,29.88,10.0,WNW,12.7,24.2,N/A,,Overcast,300,2013-02-24 21:54:00
5:54 PM,39.0,21.9,50,29.92,10.0,NW,16.1,26.5,N/A,,Overcast,310,2013-02-24 22:54:00
6:54 PM,37.0,21.0,52,29.96,10.0,WNW,16.1,25.3,N/A,,Scattered Clouds,300,2013-02-24 23:54:00
7:54 PM,36.0,19.9,52,29.99,10.0,WNW,9.2,-,N/A,,Clear,300,2013-02-25 00:54:00
8:54 PM,35.1,19.9,54,30.00,10.0,NW,9.2,16.1,N/A,,Clear,310,2013-02-25 01:54:00
9:54 PM,35.1,19.0,52,30.02,10.0,WNW,8.1,-,N/A,,Clear,290,2013-02-25 02:54:00
10:54 PM,34.0,19.0,54,30.02,10.0,Variable,6.9,-,N/A,,Clear,0,2013-02-25 03:54:00
11:54 PM,33.1,19.0,56,30.04,10.0,WNW,5.8,-,N/A,,Clear,300,2013-02-25 04:54:00